Humidity-temperature Sensor

Selected Measurement Type: Relative Humidity

 
Relative Humidity [%]     6 entries per hour
Showing data from 5/11/2022 (00:00:00 Z) to 5/10/2022 (00:01:00 Z)
Previous Next [ Day | 3-Days | 7-Days ]
First Last
Prev [ Day | 3-Days | 7-Days ] Next
First Last

Start Time:     :
End Time:     :     
Time (in GMT) :00 :50 :40 :30 :20 :10
Previous Next [ Day | 3-Days | 7-Days ]
First Last
Prev [ Day | 3-Days | 7-Days ] Next
First Last


123 => good data
MM => data is determined as missing
-- => data not received/configured
Back to Top Back to Top
5/11/2022 00:00 to 23:10 88.35 88.35 88.27 88.15 87.86 87.45
5/10/2022 23:00 to 22:10 87.39 87.86 87.53 87.35 87.57 87.33
5/10/2022 22:00 to 21:10 87.29 87.78 87.86 87.76 87.61 87.86
5/10/2022 21:00 to 20:10 87.96 87.39 85.85 85.87 86.07 86.16
5/10/2022 20:00 to 19:10 86.50 86.59 87.20 87.39 87.45 86.28
5/10/2022 19:00 to 18:10 84.98 85.85 87.06 86.18 87.10 87.20
5/10/2022 18:00 to 17:10 87.10 86.77 86.22 85.99 85.44 84.90
5/10/2022 17:00 to 16:10 84.78 84.66 84.98 85.13 84.70 84.74
5/10/2022 16:00 to 15:10 85.33 85.15 84.76 84.45 84.84 84.92
5/10/2022 15:00 to 14:10 85.03 84.94 84.94 85.68 85.99 85.72
5/10/2022 14:00 to 13:10 85.46 85.27 84.45 84.86 85.64 85.35
5/10/2022 13:00 to 12:10 85.17 86.09 85.89 86.07 86.20 85.70
5/10/2022 12:00 to 11:10 85.39 85.48 85.76 86.42 86.67 86.57
5/10/2022 11:00 to 10:10 86.40 86.65 87.22 87.31 87.14 87.74
5/10/2022 10:00 to 9:10 87.82 88.37 88.48 88.21 88.27 88.83
5/10/2022 09:00 to 8:10 88.27 88.00 87.61 87.51 87.41 87.55
5/10/2022 08:00 to 7:10 87.84 87.84 87.20 86.61 86.16 86.18
5/10/2022 07:00 to 6:10 86.55 87.12 87.51 86.57 86.26 87.20
5/10/2022 06:00 to 5:10 86.87 86.05 85.54 85.85 86.16 85.91
5/10/2022 05:00 to 4:10 86.55 86.42 85.87 86.71 87.35 87.20
5/10/2022 04:00 to 3:10 86.92 87.06 86.94 87.29 86.44 85.87
5/10/2022 03:00 to 2:10 84.31 83.83 83.05 83.16 83.73 83.69
5/10/2022 02:00 to 1:10 83.65 83.38 83.73 83.85 83.40 84.12
5/10/2022 01:00 to 0:10 84.16 83.69 83.32 83.01 83.83 83.73